Regional Weather Roundup
Issued by NWS

Home | Current Version | Previous Version | Graphics & Text | Print | Product List | Glossary Off
Versions: 1 2 3 4 5 6 7 8 9 10 11 12 13 14 15 16 17 18 19 20 21 22 23 24 25 26 27 28 29 30 31 32 33 34 35 36 37 38 39 40 41 42 43 44 45 46 47 48 49 50

000
ASUS43 KTOP 020508
RWRKS

WEATHER ROUNDUP FOR KANSAS
NATIONAL WEATHER SERVICE GOODLAND KS
1200 AM CDT SUN AUG 02 2015

NOTE:  "FAIR" INDICATES FEW OR NO CLOUDS BELOW 12,000 FEET WITH NO
SIGNIFICANT WEATHER AND/OR OBSTRUCTIONS TO VISIBILITY.

KSZ001>006-013>018-027>032-041>047-020600-
NORTHWEST KANSAS

CITY           SKY/WX    TMP DP  RH WIND       PRES   REMARKS
GOODLAND       CLOUDY    73  60  63 S9        30.04F
HAYS           PTCLDY    73  61  64 S8        29.97F
HILL CITY      CLOUDY    76  64  66 S8        29.97F
RUSSELL        PTCLDY    73  66  78 S9        29.95F
$$

KSZ061>065-074>080-084>089-020600-
SOUTHWEST KANSAS

CITY           SKY/WX    TMP DP  RH WIND       PRES   REMARKS
DODGE CITY     MOCLDY    72  67  84 S7        30.01F
ELKHART          N/A     73  66  78 SE7         N/A
GARDEN CITY    CLOUDY    72  68  87 S7        30.01F
GREAT BEND     PTCLDY    73  66  78 S7        29.98S
LIBERAL        CLOUDY    75  64  69 SE5       30.02F
PRATT          PTCLDY    73  68  83 S9        30.00F
$$

KSZ066>073-081>083-090>101-020600-
SOUTHEAST KANSAS

CITY           SKY/WX    TMP DP  RH WIND       PRES   REMARKS
CHANUTE        CLEAR     73  67  81 S7        29.99S
COFFEYVILLE    CLEAR     71  67  87 CALM      29.99R
HUTCHINSON     MOCLDY    78  70  76 S6        29.98S
MEDICINE LODGE   N/A     76  70  82 VRB5      29.98F
NEWTON         PTCLDY    77  66  69 S8        30.01S
PARSONS        CLEAR     71  69  93 CALM      30.00R
WICHITA INTL   MOCLDY    78  70  76 S7        29.98F
WICHITA JABRA  PTCLDY    77  69  76 S8        29.99S
WICHITA MCCONL PTCLDY    78  68  72 SE8       29.99S
WINFIELD       CLEAR     75  69  81 SE6       30.00S
$$

KSZ007>012-019>026-033>040-048>060-102>105-020600-
NORTHEAST KANSAS

CITY           SKY/WX    TMP DP  RH WIND       PRES   REMARKS
CONCORDIA      PTCLDY    78  67  68 S13       29.94F
EMPORIA        CLEAR     75  70  84 S8        29.98S
LAWRENCE       PTCLDY    71  66  84 E6        29.97F
MANHATTAN      CLEAR     76  70  82 SW7       29.94S
MARYSVILLE     PTCLDY    75  68  78 S5        29.94S
OLATHE IND     CLEAR     71  64  78 SE6       29.99S
OLATHE EXE     CLEAR     70  64  81 S5        29.99R
SALINA         CLEAR     76  69  79 S3        29.95F
TOPEKA BILLARD PTCLDY    77  68  73 SE5       29.96S
TOPEKA FORBES  CLEAR     78  68  71 SE8       29.96F
$$


USA.gov is the U.S. government's official web portal to all federal, state and local government web resources and services.